Seward, AK

11:12 AM AKDT on September 25, 2017 (GMT -0800)
Seward

Weather History for PAWD - September, 2014

Change the Weather History Date:

Sunday, September 28, 2014

  Actual Average Record
Temperature  
Mean Temperature 54 °F -  
Max Temperature 62 °F 50 °F 62 °F (2014)
Min Temperature 46 °F 39 °F 3 °F (1971)
Degree Days  
Heating Degree Days 11    
Growing Degree Days 4 (Base 50)    
Moisture  
Dew Point 35 °F    
Average Humidity 53    
Maximum Humidity 86    
Minimum Humidity 29    
Precipitation  
Precipitation 0.00 in - - ()
Sea Level Pressure  
Sea Level Pressure 29.54 in    
Wind  
Wind Speed 10 mph (North)    
Max Wind Speed 21 mph    
Max Gust Speed 34 mph    
Visibility 10 miles    
Events      
Averages and records for this station are not official NWS values.
T = Trace of Precipitation, MM = Missing Value Source: NWS Daily Summary

Daily Weather History Graph

Daily Weather History Graph

Search for Another Location

Airport or City:

Trip Planner

Search our weather history database for the weather conditions in past years. The results will help you decide how hot, cold, wet, or windy it might be!

Date:

Astronomy

Sep. 28, 2014 Rise Set
Actual Time 7:56 AM AKDT 7:38 PM AKDT
Civil Twilight 7:15 AM AKDT 8:19 PM AKDT
Nautical Twilight 6:25 AM AKDT 9:08 PM AKDT
Astronomical Twilight 5:33 AM AKDT 10:01 PM AKDT
Moon 1:25 PM AKDT (9/28) 9:23 PM AKDT (9/28)
Length of Visible Light 13h 04m
Length of Day
11h 41m
Waxing Crescent, 20% of the Moon is Illuminated
Sep 28
Waxing Crescent
Oct 1
First Quarter
Oct 8
Full
Oct 15
Last Quarter
Oct 23
New

Hourly Weather History & Observations

Time (AKDT) Temp. Windchill Dew Point Humidity Pressure Visibility Wind Dir Wind Speed Gust Speed Precip Events Conditions
12:53 AM 51.1 °F - 44.1 °F 77% 29.49 in 10.0 mi NE 8.1 mph - N/A   Overcast
1:53 AM 52.0 °F - 44.1 °F 74% 29.50 in 10.0 mi NNE 6.9 mph 17.3 mph N/A   Overcast
2:53 AM 52.0 °F - 44.1 °F 74% 29.51 in 10.0 mi NNE 5.8 mph - N/A   Mostly Cloudy
3:53 AM 51.1 °F - 44.1 °F 77% 29.52 in 10.0 mi NNE 6.9 mph - N/A   Mostly Cloudy
4:53 AM 51.1 °F - 43.0 °F 74% 29.53 in 10.0 mi North 5.8 mph - N/A   Overcast
5:53 AM 48.9 °F - 43.0 °F 80% 29.53 in 10.0 mi Variable 3.5 mph - N/A   Mostly Cloudy
6:53 AM 48.0 °F - 43.0 °F 83% 29.55 in 10.0 mi NNE 4.6 mph - N/A   Overcast
7:53 AM 48.0 °F - 43.0 °F 83% 29.55 in 10.0 mi North 6.9 mph - N/A   Overcast
8:53 AM 46.0 °F 41.9 °F 42.1 °F 86% 29.55 in 10.0 mi North 8.1 mph - N/A   Clear
9:53 AM 51.1 °F - 42.1 °F 71% 29.55 in 10.0 mi North 5.8 mph - N/A   Clear
10:53 AM 53.1 °F - 39.0 °F 59% 29.55 in 10.0 mi North 15.0 mph 24.2 mph N/A   Clear
11:53 AM 55.9 °F - 37.0 °F 49% 29.54 in 10.0 mi NNE 17.3 mph 24.2 mph N/A   Clear
12:53 PM 60.1 °F - 35.1 °F 39% 29.53 in 10.0 mi North 10.4 mph 25.3 mph N/A   Clear
1:53 PM 60.1 °F - 30.9 °F 33% 29.52 in 10.0 mi NW 12.7 mph 32.2 mph N/A   Clear
2:53 PM 61.0 °F - 30.9 °F 32% 29.51 in 10.0 mi WNW 19.6 mph 33.4 mph N/A   Clear
3:53 PM 62.1 °F - 28.9 °F 29% 29.51 in 10.0 mi WNW 19.6 mph 31.1 mph N/A   Clear
4:53 PM 61.0 °F - 28.0 °F 29% 29.52 in 10.0 mi WNW 18.4 mph 31.1 mph N/A   Clear
5:53 PM 60.1 °F - 28.0 °F 30% 29.53 in 10.0 mi WNW 20.7 mph 32.2 mph N/A   Clear
6:53 PM 57.9 °F - 26.1 °F 30% 29.55 in 10.0 mi NW 20.7 mph 34.5 mph N/A   Clear
7:53 PM 57.0 °F - 25.0 °F 29% 29.56 in 10.0 mi NNW 15.0 mph 25.3 mph N/A   Clear
8:53 PM 55.0 °F - 27.0 °F 34% 29.58 in 10.0 mi North 13.8 mph 18.4 mph N/A   Clear
9:53 PM 55.0 °F - 26.1 °F 33% 29.59 in 10.0 mi North 10.4 mph 23.0 mph N/A   Clear
10:53 PM 52.0 °F - 27.0 °F 38% 29.63 in 10.0 mi North 10.4 mph - N/A   Clear
11:53 PM 52.0 °F - 27.0 °F 38% 29.63 in 10.0 mi North 16.1 mph 23.0 mph N/A   Clear